TANDEM-X

Last updated on Wed Oct 29 2025 00:02:30 GMT+0000 (Coordinated Universal Time)

1 36605U 10030A 25301.46720101 .00001908 00000+0 94007-4 0 9997 2 36605 97.4464 307.5080 0001881 94.0026 266.1423 15.19154225851461
UTC large
Height (km)
Speed (km/s)
/
Latitude / Longitude
Inclination (degrees)
Orbital Period (minutes)
Azimuth
Elevation
Range (km)
Doppler Factor

Next 0 passes for location: London (51.5072 / 0.1276)

Sorry there are no passes over London.